This is the latest recevied weather packets stored in our database for station/object KN6WGU. If no packets are shown the sender has not sent any weather packets the latest 10 day(s).
| Time | Temp. | Humidity | Pressure | Rain* | Wind** | Luminosity | Snow |
|---|---|---|---|---|---|---|---|
| 1777503708 | 8.89° C | 99% | 1004.1 hPa | 0 mm | - | 28 W/m² | - |
| 1777503405 | 8.89° C | 99% | 1004.1 hPa | 0 mm | - | 25 W/m² | - |
| 1777503101 | 8.89° C | 99% | 1004 hPa | 0 mm | - | 26 W/m² | - |
| 1777502799 | 8.33° C | 99% | 1004.3 hPa | 0 mm | - | 23 W/m² | - |
| 1777502495 | 8.33° C | 98% | 1004.2 hPa | 0 mm | - | 13 W/m² | - |
| 1777502192 | 8.89° C | 98% | 1004.1 hPa | 0 mm | - | 19 W/m² | - |
| 1777501890 | 8.89° C | 98% | 1004.1 hPa | 1.27 mm | - | 22 W/m² | - |
| 1777501587 | 8.89° C | 98% | 1004 hPa | 1.27 mm | - | 17 W/m² | - |
| 1777501284 | 8.89° C | 98% | 1004.2 hPa | 0 mm | - | 16 W/m² | - |
| 1777500982 | 8.89° C | 98% | 1004.1 hPa | 0 mm | - | 37 W/m² | - |
| 1777500680 | 8.33° C | 98% | 1004.1 hPa | 0 mm | - | 28 W/m² | - |
| 1777500376 | 8.89° C | 98% | 1004.1 hPa | 0 mm | - | 26 W/m² | - |
| 1777500072 | 8.89° C | 98% | 1004.2 hPa | 0 mm | - | 18 W/m² | - |
| 1777499769 | 8.33° C | 98% | 1004.3 hPa | 0 mm | - | 21 W/m² | - |
| 1777499465 | 8.33° C | 98% | 1004.1 hPa | 0 mm | - | 18 W/m² | - |
| 1777499164 | 8.89° C | 98% | 1003.9 hPa | 0 mm | - | 40 W/m² | - |
| 1777498860 | 8.89° C | 98% | 1004 hPa | 0 mm | - | 32 W/m² | - |
| 1777498556 | 8.89° C | 98% | 1003.8 hPa | 1.78 mm | - | 43 W/m² | - |
| 1777498252 | 8.89° C | 98% | 1003.6 hPa | 1.78 mm | - | 71 W/m² | - |
| 1777497951 | 8.89° C | 98% | 1003.5 hPa | 1.78 mm | - | 66 W/m² | - |
| 1777497646 | 8.89° C | 98% | 1003.5 hPa | 0 mm | - | 73 W/m² | - |
| 1777497343 | 8.89° C | 98% | 1003.6 hPa | 0 mm | - | 43 W/m² | - |
| 1777497039 | 8.89° C | 98% | 1003.6 hPa | 0 mm | - | 44 W/m² | - |
| 1777496736 | 8.89° C | 98% | 1003.6 hPa | 0 mm | - | 26 W/m² | - |
| 1777496433 | 8.89° C | 98% | 1003.5 hPa | 0 mm | - | 34 W/m² | - |
* Rain latest hour (hover to see other rain measurements)
** Current wind speed in m/s (hover to see current wind gust speed)